| time (UTC) | temp F | wind direction | speed MPH | gust MPH | rain 1hr in | rain 24hr in | rain mn in | humidity % | barometer mb |
| 20260904043049 | 57 | 161 | 3.0 | 5.0 | 0.00 | 0.14 | 0.14 | 91 | 1011.2 |
| 20260904041536 | 57 | 163 | 3.0 | 5.0 | 0.00 | 0.14 | 0.14 | 91 | 1011.1 |
| 20260904040036 | 57 | 164 | 3.0 | 5.0 | 0.00 | 0.14 | 0.14 | 91 | 1011.1 |
| 20260904034534 | 57 | 165 | 3.0 | 6.0 | 0.00 | 0.14 | 0.14 | 91 | 1010.9 |
| 20260904033034 | 57 | 161 | 5.0 | 8.0 | 0.00 | 0.14 | 0.14 | 91 | 1010.8 |
| 20260904031531 | 58 | 156 | 3.0 | 7.0 | 0.01 | 0.14 | 0.14 | 90 | 1010.6 |
| 20260904030050 | 58 | 154 | 3.0 | 6.0 | 0.04 | 0.14 | 0.14 | 89 | 1010.6 |
| 20260904024530 | 59 | 186 | 3.0 | 5.0 | 0.06 | 0.14 | 0.14 | 86 | 1010.7 |
| 20260904023030 | 60 | 254 | 2.0 | 4.0 | 0.06 | 0.14 | 0.14 | 80 | 1010.7 |
| 20260904021534 | 63 | 272 | 0.0 | 3.0 | 0.05 | 0.13 | 0.13 | 77 | 1010.6 |
| 20260904020027 | 64 | 268 | 2.0 | 6.0 | 0.02 | 0.10 | 0.10 | 71 | 1010.5 |
| 20260904014526 | 65 | 311 | 1.0 | 5.0 | 0.00 | 0.09 | 0.08 | 66 | 1010.4 |
| 20260904013025 | 65 | 287 | 1.0 | 8.0 | 0.00 | 0.09 | 0.08 | 66 | 1010.4 |
| 20260904011525 | 65 | 314 | 3.0 | 7.0 | 0.00 | 0.09 | 0.08 | 66 | 1010.4 |
| 20260904010024 | 65 | 269 | 3.0 | 9.0 | 0.00 | 0.09 | 0.08 | 65 | 1010.3 |
| 20260904004526 | 66 | 271 | 5.0 | 12.0 | 0.00 | 0.13 | 0.08 | 65 | 1010.2 |
| 20260904003023 | 66 | 256 | 7.0 | 13.0 | 0.00 | 0.13 | 0.08 | 68 | 1010.1 |
| 20260904001520 | 67 | 242 | 11.0 | 19.0 | 0.00 | 0.13 | 0.08 | 66 | 1010.1 |
| 20260904000020 | 68 | 272 | 8.0 | 16.0 | 0.00 | 0.13 | 0.08 | 64 | 1010.2 |
| 20260903234518 | 71 | 317 | 6.0 | 14.0 | 0.00 | 0.13 | 0.08 | 58 | 1010.0 |
| 20260903233029 | 71 | 10 | 2.0 | 6.0 | 0.00 | 0.13 | 0.08 | 56 | 1010.0 |
| 20260903231517 | 69 | 360 | 2.0 | 5.0 | 0.00 | 0.13 | 0.08 | 60 | 1009.8 |
| 20260903230009 | 68 | 33 | 4.0 | 8.0 | 0.00 | 0.13 | 0.08 | 65 | 1009.9 |
| 20260903224504 | 66 | 298 | 2.0 | 6.0 | 0.00 | 0.20 | 0.08 | 68 | 1010.0 |
| 20260903223004 | 66 | 286 | 4.0 | 9.0 | 0.00 | 0.20 | 0.08 | 65 | 1010.0 |
| 20260903221501 | 65 | 278 | 4.0 | 10.0 | 0.00 | 0.20 | 0.08 | 66 | 1010.1 |
| 20260903220059 | 65 | 283 | 5.0 | 10.0 | 0.00 | 0.20 | 0.08 | 71 | 1010.0 |
| 20260903214605 | 64 | 261 | 4.0 | 9.0 | 0.00 | 0.24 | 0.08 | 73 | 1010.0 |
| 20260903213056 | 64 | 276 | 6.0 | 12.0 | 0.00 | 0.24 | 0.08 | 70 | 1010.1 |
| 20260903211556 | 64 | 306 | 4.0 | 12.0 | 0.00 | 0.24 | 0.08 | 71 | 1010.1 |
| 20260903210134 | 64 | 258 | 8.0 | 13.0 | 0.00 | 0.24 | 0.08 | 73 | 1010.0 |
| 20260903204602 | 64 | 252 | 4.0 | 9.0 | 0.00 | 0.27 | 0.08 | 75 | 1010.1 |
| 20260903203052 | 64 | 296 | 3.0 | 8.0 | 0.00 | 0.27 | 0.08 | 76 | 1010.0 |
| 20260903201549 | 63 | 312 | 2.0 | 8.0 | 0.00 | 0.27 | 0.08 | 76 | 1010.0 |
| 20260903200055 | 63 | 283 | 5.0 | 10.0 | 0.00 | 0.27 | 0.08 | 78 | 1010.1 |
| 20260903194540 | 62 | 292 | 2.0 | 9.0 | 0.00 | 0.27 | 0.08 | 74 | 1010.1 |
| 20260903193038 | 62 | 248 | 3.0 | 8.0 | 0.00 | 0.27 | 0.08 | 75 | 1010.1 |
| 20260903191537 | 61 | 265 | 5.0 | 11.0 | 0.00 | 0.27 | 0.08 | 73 | 1010.0 |
| 20260903190038 | 61 | 182 | 5.0 | 10.0 | 0.00 | 0.27 | 0.08 | 76 | 1010.1 |
| 20260903184534 | 61 | 287 | 6.0 | 12.0 | 0.00 | 0.27 | 0.08 | 77 | 1010.1 |
| 20260903183030 | 60 | 198 | 1.0 | 10.0 | 0.00 | 0.27 | 0.08 | 80 | 1010.0 |
| 20260903181527 | 59 | 171 | 6.0 | 11.0 | 0.00 | 0.27 | 0.08 | 81 | 1010.0 |
| 20260903180024 | 58 | 173 | 7.0 | 11.0 | 0.00 | 0.27 | 0.08 | 84 | 1009.9 |
| 20260903174522 | 58 | 140 | 4.0 | 11.0 | 0.00 | 0.27 | 0.08 | 86 | 1009.9 |
| 20260903173020 | 57 | 163 | 3.0 | 8.0 | 0.00 | 0.27 | 0.08 | 89 | 1009.8 |
| 20260903171518 | 57 | 178 | 6.0 | 12.0 | 0.00 | 0.27 | 0.08 | 90 | 1009.7 |
| 20260903170025 | 57 | 155 | 3.0 | 9.0 | 0.00 | 0.27 | 0.08 | 93 | 1009.7 |
| 20260903164515 | 56 | 163 | 2.0 | 8.0 | 0.00 | 0.27 | 0.08 | 95 | 1009.7 |
| 20260903163014 | 56 | 153 | 3.0 | 6.0 | 0.00 | 0.27 | 0.08 | 95 | 1009.6 |
| 20260903161512 | 55 | 132 | 3.0 | 7.0 | 0.00 | 0.27 | 0.08 | 95 | 1009.6 |
| 20260903160011 | 55 | 129 | 2.0 | 4.0 | 0.00 | 0.27 | 0.08 | 95 | 1009.6 |
| 20260903154510 | 55 | 113 | 4.0 | 8.0 | 0.00 | 0.27 | 0.08 | 95 | 1009.6 |
| 20260903153008 | 55 | 172 | 2.0 | 6.0 | 0.00 | 0.27 | 0.08 | 95 | 1009.7 |
| 20260903151507 | 54 | 138 | 2.0 | 8.0 | 0.00 | 0.27 | 0.08 | 95 | 1009.6 |
| 20260903150005 | 54 | 120 | 4.0 | 8.0 | 0.01 | 0.27 | 0.08 | 95 | 1009.4 |
| 20260903144502 | 54 | 123 | 4.0 | 9.0 | 0.01 | 0.27 | 0.08 | 94 | 1009.3 |
| 20260903143059 | 53 | 109 | 5.0 | 7.0 | 0.02 | 0.27 | 0.08 | 93 | 1009.2 |
| 20260903141557 | 54 | 144 | 3.0 | 7.0 | 0.02 | 0.27 | 0.08 | 93 | 1009.1 |
| 20260903140107 | 54 | 139 | 4.0 | 7.0 | 0.01 | 0.26 | 0.07 | 93 | 1009.1 |
| 20260903134554 | 54 | 143 | 3.0 | 7.0 | 0.03 | 0.26 | 0.07 | 93 | 1009.1 |
| 20260903133053 | 54 | 134 | 2.0 | 8.0 | 0.04 | 0.25 | 0.06 | 92 | 1008.9 |
| 20260903131554 | 54 | 114 | 4.0 | 7.0 | 0.04 | 0.25 | 0.06 | 91 | 1008.8 |
| 20260903130054 | 54 | 132 | 3.0 | 8.0 | 0.05 | 0.25 | 0.06 | 91 | 1008.8 |
| 20260903124550 | 54 | 136 | 2.0 | 7.0 | 0.04 | 0.23 | 0.04 | 90 | 1008.7 |
| 20260903123047 | 55 | 130 | 3.0 | 6.0 | 0.02 | 0.21 | 0.02 | 88 | 1008.8 |
| 20260903121546 | 55 | 130 | 3.0 | 7.0 | 0.02 | 0.21 | 0.02 | 87 | 1008.7 |
| 20260903120055 | 55 | 147 | 1.0 | 5.0 | 0.01 | 0.20 | 0.01 | 85 | 1008.6 |
| 20260903114542 | 55 | 168 | 3.0 | 7.0 | 0.00 | 0.19 | 0.00 | 85 | 1008.5 |
| 20260903113047 | 55 | 140 | 3.0 | 7.0 | 0.00 | 0.19 | 0.00 | 85 | 1008.4 |
| 20260903111540 | 55 | 142 | 3.0 | 7.0 | 0.00 | 0.19 | 0.00 | 85 | 1008.3 |
| 20260903110040 | 55 | 146 | 3.0 | 8.0 | 0.00 | 0.19 | 0.00 | 84 | 1008.3 |
| 20260903104539 | 55 | 127 | 5.0 | 9.0 | 0.00 | 0.19 | 0.00 | 85 | 1008.3 |
| 20260903103038 | 55 | 103 | 4.0 | 8.0 | 0.00 | 0.19 | 0.00 | 86 | 1008.2 |
| 20260903101545 | 55 | 165 | 5.0 | 10.0 | 0.00 | 0.19 | 0.00 | 86 | 1008.3 |
| 20260903100037 | 55 | 136 | 4.0 | 10.0 | 0.00 | 0.19 | 0.00 | 86 | 1008.2 |
| 20260903094539 | 55 | 132 | 4.0 | 8.0 | 0.00 | 0.19 | 0.00 | 87 | 1008.2 |
| 20260903093040 | 55 | 140 | 3.0 | 8.0 | 0.00 | 0.19 | 0.00 | 88 | 1008.2 |
| 20260903091536 | 55 | 130 | 5.0 | 9.0 | 0.00 | 0.19 | 0.00 | 88 | 1008.2 |
| 20260903090033 | 55 | 144 | 5.0 | 9.0 | 0.00 | 0.19 | 0.00 | 88 | 1008.1 |
| 20260903084533 | 55 | 158 | 4.0 | 10.0 | 0.00 | 0.19 | 0.00 | 88 | 1008.2 |
| 20260903083029 | 55 | 136 | 5.0 | 11.0 | 0.00 | 0.19 | 0.00 | 88 | 1008.1 |
| 20260903081528 | 55 | 133 | 4.0 | 7.0 | 0.00 | 0.19 | 0.00 | 89 | 1008.0 |
| 20260903080045 | 55 | 130 | 5.0 | 9.0 | 0.00 | 0.19 | 0.00 | 88 | 1008.0 |
| 20260903074526 | 55 | 122 | 5.0 | 9.0 | 0.00 | 0.19 | 0.00 | 88 | 1007.9 |
| 20260903073025 | 55 | 142 | 4.0 | 12.0 | 0.00 | 0.19 | 0.00 | 88 | 1007.9 |
| 20260903071523 | 55 | 137 | 6.0 | 11.0 | 0.00 | 0.19 | 0.00 | 88 | 1007.8 |
| 20260903070019 | 55 | 141 | 6.0 | 10.0 | 0.00 | 0.19 | 0.00 | 89 | 1007.8 |
| 20260903064517 | 55 | 143 | 4.0 | 8.0 | 0.00 | 0.19 | 0.19 | 89 | 1007.8 |
| 20260903063017 | 55 | 163 | 5.0 | 8.0 | 0.00 | 0.19 | 0.19 | 89 | 1007.8 |
| 20260903061518 | 55 | 149 | 6.0 | 11.0 | 0.00 | 0.19 | 0.19 | 90 | 1007.8 |
| 20260903060015 | 55 | 155 | 7.0 | 13.0 | 0.00 | 0.19 | 0.19 | 91 | 1007.8 |
| 20260903054513 | 55 | 122 | 6.0 | 10.0 | 0.00 | 0.19 | 0.19 | 92 | 1007.9 |
| 20260903053011 | 55 | 138 | 5.0 | 10.0 | 0.00 | 0.19 | 0.19 | 92 | 1007.8 |
| 20260903051510 | 55 | 169 | 5.0 | 10.0 | 0.00 | 0.19 | 0.19 | 92 | 1007.8 |
| 20260903050020 | 55 | 139 | 6.0 | 10.0 | 0.00 | 0.19 | 0.19 | 93 | 1007.8 |
| 20260903044517 | 56 | 120 | 4.0 | 10.0 | 0.00 | 0.19 | 0.19 | 92 | 1007.9 |